Date,TemperatureHighF,TemperatureAvgF,TemperatureLowF,DewpointHighF,DewpointAvgF,DewpointLowF,HumidityHigh,HumidityAvg,HumidityLow,PressureMaxIn,PressureMinIn,WindSpeedMaxMPH,WindSpeedAvgMPH,GustSpeedMaxMPH,PrecipitationSumIn
2013-1-1,23.0,22.2,21.0,23.0,21.7,20.0,99,98,97,0.00,40.00,10,5,13,0.00
2013-1-2,23.0,22.4,21.0,23.0,22.0,21.0,100,98,94,0.00,40.00,21,15,24,0.00
2013-1-3,23.0,22.0,21.0,22.0,19.8,17.0,99,91,84,0.00,40.00,18,10,22,0.00
2013-1-4,29.0,22.3,20.0,22.0,19.9,18.0,99,90,74,0.00,40.00,15,6,16,0.00
2013-1-5,25.0,23.5,22.0,25.0,23.4,22.0,100,99,97,0.00,40.00,9,5,12,0.00
2013-1-6,37.0,28.6,21.0,34.0,28.0,21.0,100,97,78,0.00,40.00,8,3,11,0.00
2013-1-7,45.0,38.7,33.0,42.0,37.1,33.0,100,94,82,0.00,40.00,44,19,55,0.00
2013-1-8,48.0,41.0,36.0,45.0,39.1,36.0,100,93,70,0.00,40.00,25,9,30,0.00
2013-1-9,44.0,37.3,30.0,40.0,35.5,30.0,100,93,77,0.00,40.00,32,17,39,0.00
2013-1-10,35.0,31.0,29.0,30.0,28.5,25.0,100,91,73,0.00,40.00,34,24,42,0.00
2013-1-11,35.0,29.4,24.0,28.0,22.4,15.0,97,76,52,0.00,40.00,25,9,31,0.00
2013-1-12,32.0,23.8,20.0,25.0,21.8,19.0,100,92,64,0.00,40.00,12,7,17,0.00
2013-1-13,25.0,21.3,18.0,25.0,21.0,18.0,100,98,94,0.00,40.00,6,3,6,0.00
2013-1-14,35.0,27.1,19.0,31.0,24.8,18.0,100,91,70,0.00,40.00,45,22,59,0.00
2013-1-15,40.0,32.5,30.0,34.0,31.6,30.0,100,97,77,0.00,40.00,27,11,33,0.00
2013-1-16,31.0,28.0,24.0,31.0,28.0,24.0,100,100,100,0.00,40.00,15,8,19,0.00
2013-1-17,26.0,24.3,23.0,26.0,24.3,23.0,100,100,100,0.00,40.00,5,2,6,0.00
2013-1-18,33.0,27.2,23.0,33.0,27.1,22.0,100,100,99,0.00,40.00,11,2,12,0.00
2013-1-19,26.0,24.4,23.0,26.0,24.4,23.0,100,100,100,0.00,40.00,11,4,13,0.00
2013-1-20,24.0,23.0,22.0,24.0,22.9,22.0,100,100,99,0.00,40.00,2,1,2,0.00
2013-1-21,24.0,22.4,21.0,24.0,22.3,21.0,100,99,99,0.00,40.00,0,0,0,0.00
2013-1-22,22.0,21.6,21.0,22.0,21.6,20.0,99,99,99,0.00,40.00,0,0,0,0.00
2013-1-23,29.0,23.0,20.0,29.0,22.8,20.0,100,99,99,0.00,40.00,14,0,17,0.00
2013-1-24,32.0,30.5,28.0,32.0,30.5,28.0,100,100,100,0.00,40.00,16,6,18,0.00
2013-1-25,38.0,33.6,30.0,38.0,33.6,30.0,100,100,100,0.00,40.00,12,3,15,0.00
2013-1-26,37.0,33.8,31.0,37.0,33.8,31.0,100,100,98,0.00,40.00,18,10,23,0.00
2013-1-27,37.0,33.0,32.0,35.0,32.5,32.0,100,98,89,0.00,40.00,22,14,27,0.00
2013-1-28,39.0,34.7,32.0,36.0,33.6,32.0,100,96,79,0.00,40.00,29,19,36,0.00
2013-1-29,41.0,39.0,35.0,38.0,36.5,34.0,97,91,78,0.00,40.00,39,29,46,0.00
2013-1-30,44.0,40.6,38.0,42.0,39.8,37.0,100,97,89,0.00,40.00,33,23,37,0.00
2013-1-31,47.0,42.3,40.0,40.0,38.6,37.0,100,87,72,0.00,40.00,29,20,37,0.00
2013-2-1,50.0,41.7,36.0,42.0,37.0,33.0,100,85,58,0.00,40.00,22,9,27,0.00
2013-2-2,45.0,38.4,34.0,38.0,35.2,32.0,97,88,74,0.00,40.00,12,7,17,0.00
2013-2-3,42.0,38.1,32.0,40.0,35.6,32.0,100,91,80,0.00,40.00,37,21,43,0.00
2013-2-4,49.0,41.5,38.0,38.0,35.0,32.0,94,78,56,0.00,40.00,29,11,32,0.00
2013-2-5,47.0,39.4,36.0,41.0,37.1,34.0,100,91,69,0.00,40.00,26,15,34,0.00
2013-2-6,46.0,39.6,36.0,38.0,35.9,34.0,96,87,67,0.00,40.00,14,6,20,0.00
2013-2-7,41.0,35.6,31.0,37.0,32.0,29.0,100,87,66,0.00,40.00,24,16,32,0.00
2013-2-8,41.0,32.8,27.0,31.0,29.3,27.0,100,87,62,0.00,40.00,25,18,31,0.00
2013-2-9,33.0,32.8,32.0,30.0,29.0,28.0,90,85,82,0.00,40.00,28,25,33,0.00
2013-2-10,33.0,33.0,33.0,29.0,29.0,29.0,84,84,84,0.00,40.00,25,25,25,0.00
2013-2-11,33.0,33.0,33.0,29.0,29.0,29.0,84,84,84,0.00,40.00,25,25,25,0.00
2013-2-12,33.0,33.0,33.0,29.0,29.0,29.0,84,84,84,0.00,40.00,25,25,25,0.00
2013-2-13,46.0,36.9,0.0,37.0,31.0,-72.0,86,80,64,0.00,40.00,33,25,41,0.00
2013-2-14,48.0,41.2,37.0,39.0,36.9,34.0,96,85,70,0.00,40.00,31,19,38,0.00
2013-2-15,50.0,41.0,35.0,40.0,37.5,35.0,100,88,67,0.00,40.00,11,7,16,0.00
2013-2-16,45.0,38.7,34.0,41.0,36.2,30.0,100,90,73,0.00,40.00,38,19,47,0.00
2013-2-17,40.0,35.6,32.0,33.0,27.1,25.0,89,71,58,0.00,40.00,38,25,50,0.00
2013-2-18,39.0,34.2,30.0,30.0,27.8,25.0,93,77,62,0.00,40.00,16,6,22,0.00
2013-2-19,45.0,36.2,29.0,32.0,28.3,25.0,94,74,49,0.00,40.00,15,4,16,0.00
2013-2-20,41.0,34.6,30.0,35.0,32.3,30.0,100,92,71,0.00,40.00,23,16,30,0.00
2013-2-21,39.0,35.0,32.0,36.0,33.7,30.0,100,95,72,0.00,40.00,26,13,35,0.00
2013-2-22,39.0,37.0,33.0,39.0,35.2,28.0,100,93,76,0.00,40.00,37,15,45,0.00
2013-2-23,39.0,34.6,31.0,32.0,29.6,27.0,100,82,65,0.00,40.00,40,29,52,0.00
2013-2-24,43.0,35.9,32.0,33.0,30.5,28.0,95,81,60,0.00,40.00,27,14,36,0.00
2013-2-25,41.0,35.1,19.0,37.0,32.9,8.0,100,91,59,0.00,40.00,33,17,41,0.00
2013-2-26,41.0,35.9,32.0,34.0,31.5,26.0,99,84,59,0.00,40.00,28,12,37,0.00
2013-2-27,48.0,39.7,34.0,40.0,35.2,32.0,97,84,57,0.00,40.00,14,7,17,0.00
2013-2-28,49.0,43.9,40.0,47.0,43.4,40.0,100,98,87,0.00,40.00,17,6,21,0.00
2013-3-1,53.0,47.6,44.0,49.0,46.3,43.0,100,95,79,0.00,40.00,20,12,25,0.00
2013-3-2,48.0,44.2,38.0,46.0,42.8,32.0,100,95,81,0.00,40.00,34,17,40,0.00
2013-3-3,42.0,37.2,31.0,33.0,27.1,24.0,87,67,51,0.00,40.00,34,22,44,0.00
2013-3-4,46.0,35.9,27.0,29.0,23.1,17.0,94,63,33,0.00,40.00,19,9,24,0.00
2013-3-5,41.0,35.8,31.0,34.0,25.3,18.0,100,67,45,0.00,40.00,14,6,17,0.00
2013-3-6,37.0,33.8,32.0,36.0,33.5,32.0,100,99,92,0.00,40.00,17,6,21,0.00
2013-3-7,49.0,39.4,33.0,40.0,32.5,26.0,100,78,45,0.00,40.00,15,5,22,0.00
2013-3-8,51.0,40.1,30.0,37.0,31.0,28.0,95,72,44,0.00,40.00,13,7,15,0.00
2013-3-9,36.0,31.8,31.0,32.0,31.1,31.0,100,97,81,0.00,40.00,17,16,18,0.00
2013-3-10,31.0,31.0,31.0,31.0,31.0,31.0,100,100,100,0.00,40.00,16,16,16,0.00
2013-3-11,49.0,39.8,0.0,44.0,37.0,-71.0,100,92,71,0.00,40.00,18,14,22,0.00
2013-3-12,53.0,47.2,44.0,48.0,44.9,41.0,100,92,77,0.00,40.00,30,16,38,0.00
2013-3-13,59.0,50.1,43.0,45.0,42.9,41.0,95,77,55,0.00,40.00,22,12,26,0.00
2013-3-14,58.0,49.3,44.0,46.0,42.2,37.0,95,77,52,0.00,40.00,35,17,42,0.00
2013-3-15,54.0,48.4,44.0,47.0,44.0,41.0,100,85,69,0.00,40.00,26,16,33,0.00
2013-3-16,47.0,41.8,32.0,44.0,39.5,31.0,100,92,66,0.00,40.00,42,19,54,0.00
2013-3-17,40.0,34.2,31.0,32.0,30.0,27.0,100,84,63,0.00,40.00,42,23,54,0.00
2013-3-18,44.0,37.5,32.0,34.0,31.0,29.0,94,78,56,0.00,40.00,37,20,47,0.00
2013-3-19,43.0,36.3,30.0,35.0,30.4,26.0,96,79,56,0.00,40.00,15,6,16,0.00
2013-3-20,48.0,37.7,32.0,41.0,34.9,28.0,100,90,52,0.00,40.00,35,15,51,0.00
2013-3-21,40.0,33.4,31.0,33.0,30.6,27.0,100,89,70,0.00,40.00,29,18,40,0.00
2013-3-22,40.0,33.3,29.0,29.0,27.1,25.0,97,78,57,0.00,40.00,34,23,41,0.00
2013-3-23,44.0,34.8,29.0,31.0,26.5,19.0,99,74,39,0.00,40.00,21,8,24,0.00
2013-3-24,46.0,37.5,30.0,30.0,25.2,21.0,89,62,38,0.00,40.00,10,5,15,0.00
2013-3-25,53.0,42.9,35.0,32.0,24.7,-99.9,61,49,38,0.00,40.00,12,6,17,0.00
2013-3-26,52.0,42.5,38.0,38.0,32.0,25.0,78,66,46,0.00,40.00,10,5,11,0.00
2013-3-27,59.0,51.4,46.0,45.0,41.4,38.0,93,69,47,0.00,40.00,16,5,19,0.00
2013-3-28,58.0,48.6,42.0,48.0,43.2,39.0,100,83,49,0.00,40.00,17,8,19,0.00
2013-3-29,64.0,53.2,46.0,50.0,43.6,41.0,92,71,47,0.00,40.00,19,9,21,0.00
2013-3-30,66.0,53.4,43.0,47.0,41.1,-99.9,89,67,41,0.00,40.00,12,8,16,0.00
2013-3-31,67.0,57.9,48.0,45.0,38.4,31.0,69,48,34,0.00,40.00,22,6,26,0.00
2013-4-1,58.0,52.8,49.0,49.0,46.3,43.0,90,78,65,0.00,40.00,43,31,51,0.00
2013-4-2,57.0,50.7,46.0,47.0,43.5,-99.9,94,78,60,0.00,40.00,37,26,46,0.00
2013-4-3,63.0,53.0,42.0,52.0,44.6,42.0,100,75,49,0.00,40.00,20,9,27,0.00
2013-4-4,54.0,51.8,50.0,51.0,45.6,41.0,96,79,66,0.00,40.00,25,10,35,0.00
2013-4-5,54.0,48.7,45.0,47.0,43.6,40.0,97,82,65,0.00,40.00,25,16,37,0.00
2013-4-6,48.0,43.2,38.0,44.0,40.6,37.0,100,90,76,0.00,40.00,28,15,37,0.00
2013-4-7,45.0,39.8,36.0,42.0,37.9,35.0,100,93,77,0.00,40.00,40,18,56,0.00
2013-4-8,48.0,40.9,35.0,38.0,35.5,32.0,95,81,64,0.00,40.00,39,29,48,0.00
2013-4-9,56.0,44.4,36.0,41.0,36.8,34.0,99,76,51,0.00,40.00,24,15,28,0.00
2013-4-10,52.0,46.5,41.0,48.0,39.1,31.0,100,75,60,0.00,40.00,46,22,55,0.00
2013-4-11,50.0,42.9,38.0,37.0,34.5,32.0,83,72,55,0.00,40.00,51,29,59,0.00
2013-4-12,48.0,41.2,32.0,40.0,35.8,32.0,100,82,57,0.00,40.00,33,16,41,0.00
2013-4-13,44.0,37.4,31.0,40.0,32.5,26.0,100,83,52,0.00,40.00,50,28,61,0.00
2013-4-14,47.0,38.6,34.0,34.0,31.9,27.0,97,78,46,0.00,40.00,31,19,38,0.00
2013-4-15,46.0,37.6,34.0,38.0,33.8,30.0,100,86,58,0.00,40.00,21,14,23,0.00
2013-4-16,50.0,40.0,33.0,37.0,32.7,21.0,100,78,39,0.00,40.00,19,9,22,0.00
2013-4-17,54.0,41.8,31.0,35.0,31.8,27.0,100,71,36,0.00,40.00,28,17,33,0.00
2013-4-18,51.0,44.8,40.0,44.0,37.2,34.0,96,74,61,0.00,40.00,35,22,39,0.00
2013-4-19,54.0,47.0,44.0,47.0,44.3,41.0,100,91,70,0.00,40.00,41,23,50,0.00
2013-4-20,50.0,46.1,43.0,43.0,39.5,37.0,97,78,61,0.00,40.00,40,28,48,0.00
2013-4-21,48.0,43.9,41.0,41.0,39.2,37.0,91,83,69,0.00,40.00,36,23,43,0.00
2013-4-22,56.0,46.3,36.0,40.0,30.8,15.0,100,60,27,0.00,40.00,20,9,23,0.00
2013-4-23,62.0,47.6,34.0,36.0,24.1,14.0,70,41,24,0.00,40.00,13,6,18,0.00
2013-4-24,70.0,55.7,42.0,33.0,25.8,15.0,48,32,23,0.00,40.00,15,5,18,0.00
2013-4-25,69.0,57.6,46.0,40.0,36.2,32.0,65,46,32,0.00,40.00,33,22,39,0.00
2013-4-26,73.0,61.6,49.0,45.0,37.2,29.0,78,44,22,0.00,40.00,28,18,32,0.00
2013-4-27,65.0,57.0,50.0,41.0,34.0,25.0,66,43,21,0.00,40.00,32,19,41,0.00
2013-4-28,57.0,51.3,45.0,47.0,41.0,35.0,99,69,44,0.00,40.00,27,18,37,0.00
2013-4-29,53.0,53.0,53.0,36.0,36.0,36.0,53,53,53,0.00,40.00,20,20,20,0.00
2013-4-30,53.0,45.8,38.0,36.0,28.6,25.0,73,51,39,0.00,40.00,30,24,43,0.00
2013-5-1,61.0,47.3,32.0,35.0,28.8,17.0,95,53,21,0.00,40.00,19,9,22,0.00
2013-5-2,72.0,58.1,45.0,39.0,26.5,15.0,49,30,19,0.00,40.00,12,5,18,0.00
2013-5-3,75.0,61.2,47.0,45.0,37.6,30.0,71,43,27,0.00,40.00,22,10,24,0.00
2013-5-4,72.0,65.1,54.0,40.0,31.4,25.0,53,29,18,0.00,40.00,26,14,36,0.00
2013-5-5,76.0,66.4,55.0,39.0,33.5,28.0,38,29,22,0.00,40.00,21,11,29,0.00
2013-5-6,82.0,68.5,54.0,49.0,39.6,31.0,52,36,19,0.00,40.00,24,10,27,0.00
2013-5-7,73.0,65.4,53.0,49.0,46.5,45.0,75,52,38,0.00,40.00,40,26,45,0.00
2013-5-8,73.0,73.0,73.0,47.0,47.0,47.0,39,39,39,0.00,40.00,21,21,21,0.00
2013-5-9,73.0,73.0,73.0,47.0,47.0,47.0,39,39,39,0.00,40.00,21,21,21,0.00
2013-5-10,83.0,73.1,68.0,49.0,42.3,-99.9,44,35,23,0.00,40.00,28,21,34,0.00
2013-5-11,82.0,69.8,59.0,52.0,47.7,-99.9,70,48,28,0.00,40.00,29,18,35,0.00
2013-5-12,68.0,61.7,55.0,56.0,53.0,49.0,85,73,53,0.00,40.00,33,25,41,0.00
2013-5-13,66.0,54.2,47.0,54.0,48.6,38.0,97,82,49,0.00,40.00,31,18,41,0.00
2013-5-14,61.0,50.9,41.0,40.0,33.8,25.0,93,56,26,0.00,40.00,28,18,32,0.00
2013-5-15,55.0,49.9,46.0,46.0,39.9,32.0,93,69,48,0.00,40.00,24,18,29,0.00
2013-5-16,68.0,50.2,44.0,51.0,28.0,-99.9,99,76,42,0.00,40.00,29,14,35,0.00
2013-5-17,59.0,51.1,33.0,45.0,38.9,-99.9,93,72,47,0.00,40.00,31,24,37,0.00
2013-5-18,47.0,47.0,47.0,43.0,43.0,43.0,84,84,84,0.00,40.00,20,20,20,0.00
2013-5-19,47.0,47.0,47.0,43.0,43.0,43.0,84,84,84,0.00,40.00,20,20,20,0.00
2013-5-20,74.0,55.7,47.0,44.0,42.4,38.0,84,65,29,0.00,40.00,20,17,22,0.00
2013-5-21,65.0,53.4,37.0,42.0,39.9,36.0,100,64,42,0.00,40.00,35,22,46,0.00
2013-5-22,42.0,39.4,37.0,41.0,38.5,35.0,100,96,88,0.00,40.00,21,9,27,0.00
2013-5-23,49.0,42.8,37.0,44.0,41.0,37.0,100,93,73,0.00,40.00,18,10,20,0.00
2013-5-24,54.0,45.8,41.0,44.0,41.0,-99.9,100,86,61,0.00,40.00,31,16,38,0.00
2013-5-25,60.0,50.7,42.0,46.0,42.6,40.0,100,76,51,0.00,40.00,25,15,31,0.00
2013-5-26,59.0,52.3,47.0,50.0,46.8,44.0,100,82,61,0.00,40.00,30,17,37,0.00
2013-5-27,57.0,49.0,45.0,54.0,48.1,43.0,100,97,86,0.00,40.00,23,10,26,0.00
2013-5-28,58.0,50.7,45.0,50.0,45.7,44.0,99,84,64,0.00,40.00,35,20,40,0.00
2013-5-29,54.0,49.1,45.0,52.0,47.3,42.0,100,93,81,0.00,40.00,29,14,37,0.00
2013-5-30,57.0,48.1,42.0,45.0,41.1,-99.9,99,79,52,0.00,40.00,34,24,39,0.00
2013-5-31,65.0,53.7,44.0,45.0,42.2,37.0,95,67,38,0.00,40.00,26,15,32,0.00
2013-6-1,69.0,57.8,47.0,49.0,45.6,43.0,92,65,44,0.00,40.00,29,18,34,0.00
2013-6-2,67.0,58.2,49.0,50.0,46.6,42.0,98,68,44,0.00,40.00,33,22,41,0.00
2013-6-3,65.0,57.9,47.0,49.0,46.8,44.0,99,69,50,0.00,40.00,25,14,29,0.00
2013-6-4,65.0,65.0,65.0,47.0,47.0,47.0,52,52,52,0.00,40.00,11,11,11,0.00
2013-6-5,65.0,65.0,65.0,47.0,47.0,47.0,52,52,52,0.00,40.00,11,11,11,0.00
2013-6-6,65.0,65.0,65.0,47.0,47.0,47.0,52,52,52,0.00,40.00,11,11,11,0.00
2013-6-7,65.0,65.0,65.0,47.0,47.0,47.0,52,52,52,0.00,40.00,11,11,11,0.00
2013-6-8,65.0,65.0,65.0,47.0,47.0,47.0,52,52,52,0.00,40.00,11,11,11,0.00
2013-6-9,65.0,65.0,65.0,47.0,47.0,47.0,52,52,52,0.00,40.00,11,11,11,0.00
2013-6-10,65.0,65.0,65.0,47.0,47.0,47.0,52,52,52,0.00,40.00,11,11,11,0.00
2013-6-11,65.0,57.4,50.0,47.0,43.2,38.0,75,59,51,0.00,40.00,35,20,45,0.00
2013-6-12,63.0,53.8,49.0,43.0,41.2,36.0,79,64,38,0.00,40.00,35,25,43,0.00
2013-6-13,59.0,51.2,45.0,47.0,43.6,41.0,96,76,52,0.00,40.00,37,24,48,0.00
2013-6-14,67.0,55.9,46.0,47.0,43.4,40.0,88,65,38,0.00,40.00,28,19,36,0.00
2013-6-15,80.0,64.6,49.0,50.0,44.0,34.0,83,52,20,0.00,40.00,25,11,31,0.00
2013-6-16,72.0,63.0,55.0,53.0,49.1,45.0,82,61,39,0.00,40.00,35,24,44,0.00
2013-6-17,73.0,62.1,54.0,52.0,46.9,-99.9,88,61,35,0.00,40.00,30,22,37,0.00
2013-6-18,67.0,56.6,50.0,48.0,42.1,-99.9,86,61,33,0.00,40.00,32,22,40,0.00
2013-6-19,61.0,53.5,49.0,47.0,42.9,39.0,87,68,44,0.00,40.00,36,28,47,0.00
2013-6-20,60.0,51.1,47.0,46.0,44.8,43.0,90,79,57,0.00,40.00,29,18,36,0.00
2013-6-22,64.0,64.0,64.0,44.0,44.0,44.0,46,46,46,0.00,40.00,21,21,21,0.00
2013-6-23,64.0,64.0,64.0,44.0,44.0,44.0,46,46,46,0.00,40.00,21,21,21,0.00
2013-6-24,63.0,55.6,52.0,51.0,47.2,-99.9,91,76,57,0.00,40.00,23,15,28,0.00
2013-6-25,64.0,55.7,52.0,57.0,52.2,49.0,96,88,71,0.00,40.00,19,7,24,0.00
2013-6-26,66.0,60.3,54.0,57.0,52.5,50.0,94,76,57,0.00,40.00,24,11,30,0.00
2013-6-27,78.0,64.7,56.0,58.0,52.3,-99.9,92,68,45,0.00,40.00,21,10,26,0.00
2013-6-28,92.0,74.7,60.0,59.0,54.9,-99.9,85,55,29,0.00,40.00,22,10,26,0.00
2013-6-29,85.0,74.4,65.0,61.0,56.9,51.0,81,57,33,0.00,40.00,28,23,33,0.00
2013-6-30,96.0,80.7,63.0,59.0,54.0,50.0,72,43,21,0.00,40.00,19,10,21,0.00
2013-7-1,96.0,80.0,67.0,64.0,59.7,53.0,84,52,24,0.00,40.00,31,13,43,0.00
2013-7-2,90.0,77.1,70.0,64.0,58.7,47.0,76,56,28,0.00,40.00,38,28,49,0.00
2013-7-4,77.0,77.0,77.0,44.0,44.0,44.0,30,30,30,0.00,40.00,26,26,26,0.00
2013-7-5,77.0,77.0,77.0,44.0,44.0,44.0,30,30,30,0.00,40.00,26,26,26,0.00
2013-7-6,77.0,77.0,77.0,44.0,44.0,44.0,30,30,30,0.00,40.00,26,26,26,0.00
2013-7-7,77.0,77.0,77.0,44.0,44.0,44.0,30,30,30,0.00,40.00,26,26,26,0.00
2013-7-8,77.0,57.8,77.0,44.0,8.0,-99.9,30,30,30,0.00,40.00,26,26,26,0.00
2013-7-10,81.0,71.2,62.0,52.0,41.5,-99.9,53,37,26,0.00,40.00,40,28,46,0.00
2013-7-11,72.0,61.4,50.0,45.0,41.2,35.0,75,49,28,0.00,40.00,40,30,46,0.00
2013-7-12,70.0,58.4,50.0,47.0,44.2,38.0,83,61,33,0.00,40.00,33,25,40,0.00
2013-7-15,90.0,79.4,62.0,44.0,38.6,35.0,47,24,14,0.00,40.00,18,10,21,0.00
2013-7-16,88.0,77.0,65.0,52.0,39.6,32.0,50,27,17,0.00,40.00,26,11,31,0.00
2013-7-17,77.0,66.5,58.0,54.0,49.2,35.0,83,57,22,0.00,40.00,39,31,48,0.00
2013-7-18,86.0,70.0,55.0,52.0,46.6,34.0,85,48,17,0.00,40.00,31,23,39,0.00
2013-7-19,86.0,70.9,58.0,58.0,51.3,43.0,82,54,22,0.00,40.00,31,23,37,0.00
2013-7-20,81.0,68.3,57.0,57.0,52.8,-99.9,93,62,33,0.00,40.00,33,24,42,0.00
2013-7-21,83.0,69.0,56.0,54.0,51.1,47.0,88,56,28,0.00,40.00,37,27,44,0.00
2013-7-22,83.0,70.7,59.0,54.0,50.2,44.0,79,51,25,0.00,40.00,35,26,41,0.00
2013-7-23,88.0,72.0,60.0,56.0,50.1,40.0,76,50,18,0.00,40.00,30,22,35,0.00
2013-7-24,87.0,74.3,61.0,57.0,48.7,36.0,79,45,17,0.00,40.00,33,26,38,0.00
2013-7-25,88.0,75.0,61.0,54.0,47.9,39.0,76,41,22,0.00,40.00,33,24,38,0.00
2013-7-26,88.0,72.7,60.0,54.0,49.7,38.0,73,47,17,0.00,40.00,37,26,45,0.00
2013-7-27,78.0,66.6,55.0,48.0,41.6,37.0,66,42,23,0.00,40.00,41,29,47,0.00
2013-7-28,71.0,61.7,53.0,49.0,45.6,40.0,82,57,32,0.00,40.00,43,34,52,0.00
2013-7-29,77.0,62.7,51.0,49.0,46.4,38.0,89,59,24,0.00,40.00,39,26,47,0.00
2013-7-30,81.0,68.6,56.0,54.0,48.1,35.0,90,52,21,0.00,40.00,30,23,34,0.00
2013-7-31,81.0,68.2,60.0,57.0,51.7,45.0,78,56,29,0.00,40.00,34,18,38,0.00
2013-8-1,65.0,59.9,55.0,55.0,52.4,51.0,89,76,60,0.00,40.00,44,35,52,0.00
2013-8-2,65.0,58.7,53.0,52.0,49.7,48.0,89,72,56,0.00,40.00,36,30,42,0.00
2013-8-3,82.0,67.4,53.0,55.0,51.8,49.0,96,61,32,0.00,40.00,24,12,28,0.00
2013-8-4,91.0,73.2,58.0,56.0,52.4,43.0,86,53,21,0.00,40.00,20,10,22,0.00
2013-8-5,86.0,74.0,61.0,58.0,54.0,46.0,86,53,25,0.00,40.00,26,19,32,0.00
2013-8-6,87.0,74.3,60.0,58.0,48.9,33.0,86,46,20,0.00,40.00,31,21,38,0.00
2013-8-7,88.0,72.9,60.0,51.0,46.9,33.0,70,41,21,0.00,40.00,40,28,46,0.00
2013-8-8,79.0,68.6,59.0,58.0,54.1,50.0,79,61,41,0.00,40.00,34,24,40,0.00
2013-8-9,83.0,70.0,61.0,61.0,56.9,51.0,95,66,34,0.00,40.00,27,18,31,0.00
2013-8-10,75.0,65.5,59.0,60.0,58.0,56.0,96,78,52,0.00,40.00,32,21,40,0.00
2013-8-11,75.0,66.0,60.0,58.0,53.8,47.0,86,66,37,0.00,40.00,31,24,35,0.00
2013-8-12,78.0,64.7,56.0,55.0,53.2,49.0,95,69,38,0.00,40.00,30,21,36,0.00
2013-8-13,86.0,67.5,56.0,54.0,44.9,-99.9,90,55,17,0.00,40.00,29,19,34,0.00
2013-8-14,80.0,69.0,61.0,51.0,44.2,-99.9,62,43,31,0.00,40.00,31,21,39,0.00
2013-8-15,78.0,57.0,62.0,59.0,28.6,-99.9,73,53,42,0.00,40.00,32,20,40,0.00
2013-8-16,78.0,65.1,64.0,61.0,50.2,-99.9,86,69,49,0.00,40.00,22,17,30,0.00
2013-8-19,80.0,63.6,65.0,54.0,21.9,-99.9,64,38,29,0.00,40.00,37,26,42,0.00
2013-8-20,80.0,65.3,55.0,53.0,45.5,-99.9,88,58,22,0.00,40.00,30,20,36,0.00
2013-8-21,90.0,72.1,56.0,50.0,42.1,33.0,71,40,14,0.00,40.00,15,10,20,0.00
2013-8-22,78.0,68.9,65.0,56.0,41.0,-99.9,62,39,24,0.00,40.00,26,10,33,0.00
2013-8-23,70.0,64.2,60.0,59.0,56.5,51.0,93,77,50,0.00,40.00,30,24,37,0.00
2013-8-26,72.0,65.3,56.0,61.0,53.8,48.0,97,68,52,0.00,40.00,26,12,29,0.00
2013-8-27,74.0,58.3,54.0,52.0,50.9,50.0,86,78,43,0.00,40.00,16,7,18,0.00
2013-8-28,79.0,74.0,67.0,58.0,55.4,54.0,68,52,41,0.00,40.00,27,16,31,0.00
2013-8-29,74.0,67.3,63.0,60.0,56.9,56.0,82,69,57,0.00,40.00,25,18,33,0.00
2013-8-30,76.0,66.6,60.0,58.0,54.8,49.0,94,69,40,0.00,40.00,23,19,27,0.00
2013-8-31,87.0,69.1,56.0,54.0,45.3,-99.9,85,51,21,0.00,40.00,16,8,18,0.00
2013-9-1,83.0,71.5,60.0,56.0,52.9,50.0,83,55,31,0.00,40.00,32,17,39,0.00
2013-9-2,79.0,68.9,61.0,54.0,51.9,50.0,71,56,36,0.00,40.00,34,25,39,0.00
2013-9-3,76.0,67.5,61.0,54.0,52.0,49.0,73,58,38,0.00,40.00,31,22,36,0.00
2013-9-4,74.0,64.6,58.0,56.0,53.0,51.0,86,67,46,0.00,40.00,33,21,40,0.00
2013-9-5,70.0,62.2,54.0,56.0,54.5,52.0,95,76,59,0.00,40.00,37,25,47,0.00
2013-9-6,63.0,57.0,53.0,57.0,53.4,52.0,97,89,67,0.00,40.00,29,12,35,0.00
2013-9-9,83.0,74.7,61.0,60.0,55.3,49.0,88,54,32,0.00,40.00,22,15,25,0.00
2013-9-10,90.0,74.9,60.0,60.0,52.0,43.0,91,52,20,0.00,40.00,17,11,23,0.00
2013-9-11,92.0,85.1,73.0,50.0,47.0,44.0,42,27,19,0.00,40.00,11,8,16,0.00
2013-9-12,91.0,72.1,60.0,60.0,53.4,47.0,83,55,23,0.00,40.00,24,14,27,0.00
2013-9-13,81.0,71.3,63.0,60.0,58.4,56.0,88,66,42,0.00,40.00,29,24,34,0.00
2013-9-16,65.0,61.4,56.0,52.0,51.1,50.0,83,69,60,0.00,40.00,36,31,42,0.00
2013-9-17,63.0,55.8,52.0,51.0,47.2,39.0,91,74,41,0.00,40.00,38,27,46,0.00
2013-9-18,56.0,52.4,51.0,47.0,45.0,41.0,85,76,59,0.00,40.00,32,22,39,0.00
2013-9-19,74.0,60.3,48.0,44.0,39.5,35.0,81,50,24,0.00,40.00,15,7,20,0.00
2013-9-20,73.0,64.3,54.0,51.0,39.1,35.0,64,41,25,0.00,40.00,33,12,44,0.00
2013-9-23,58.0,52.9,49.0,50.0,47.7,45.0,97,83,65,0.00,40.00,21,14,25,0.00
2013-9-25,56.0,48.3,44.0,44.0,41.9,41.0,94,79,58,0.00,40.00,29,22,35,0.00
2013-9-26,59.0,49.3,43.0,43.0,41.6,40.0,97,76,49,0.00,40.00,25,22,29,0.00
2013-9-27,54.0,48.6,46.0,48.0,45.5,43.0,97,90,65,0.00,40.00,27,12,30,0.00
2013-9-28,64.0,52.9,46.0,54.0,46.4,-99.9,97,85,61,0.00,40.00,32,8,39,0.00
2013-9-29,52.0,48.5,45.0,48.0,44.6,41.0,95,86,71,0.00,40.00,22,9,29,0.00
2013-9-30,55.0,48.4,46.0,47.0,41.7,37.0,89,77,59,0.00,40.00,38,21,51,0.00
2013-10-1,48.0,44.4,42.0,43.0,41.8,41.0,97,90,79,0.00,40.00,16,14,19,0.00
2013-10-2,51.0,43.1,39.0,44.0,40.7,38.0,98,91,63,0.00,40.00,24,10,29,0.00
2013-10-3,55.0,46.3,40.0,41.0,39.2,38.0,96,77,54,0.00,40.00,24,18,29,0.00
2013-10-4,61.0,48.5,37.0,42.0,38.1,35.0,98,70,41,0.00,40.00,12,8,14,0.00
2013-10-5,66.0,53.3,43.0,42.0,36.3,32.0,73,54,28,0.00,40.00,12,6,15,0.00
2013-10-6,68.0,56.4,45.0,41.0,38.1,35.0,78,52,31,0.00,40.00,21,8,24,0.00
2013-10-7,55.0,49.5,45.0,48.0,43.3,38.0,97,80,53,0.00,40.00,27,20,36,0.00
2013-10-8,48.0,45.2,40.0,46.0,41.4,38.0,97,86,79,0.00,40.00,41,17,47,0.00
2013-10-9,54.0,44.3,35.0,49.0,41.2,35.0,100,89,66,0.00,40.00,18,6,19,0.00
2013-10-10,55.0,46.6,41.0,44.0,40.6,33.0,94,80,46,0.00,40.00,35,23,41,0.00
2013-10-11,53.0,46.6,42.0,44.0,41.0,37.0,96,81,58,0.00,40.00,23,16,28,0.00
2013-10-12,49.0,43.7,43.0,43.0,37.7,-99.9,96,85,75,0.00,40.00,22,15,25,0.00
2013-10-13,61.0,48.2,38.0,46.0,39.9,35.0,99,76,40,0.00,40.00,10,7,11,0.00
2013-10-18,61.0,54.9,49.0,38.0,35.2,33.0,62,47,38,0.00,40.00,10,7,13,0.00
2013-10-19,65.0,52.3,41.0,44.0,34.7,-99.9,83,57,40,0.00,40.00,12,7,15,0.00
2013-10-20,68.0,57.2,44.0,46.0,41.1,36.0,86,58,31,0.00,40.00,7,5,8,0.00
2013-10-21,67.0,61.6,54.0,43.0,40.1,39.0,60,45,36,0.00,40.00,11,8,14,0.00
2013-10-22,66.0,57.0,54.0,43.0,36.6,-99.9,62,51,40,0.00,40.00,10,7,13,0.00
2013-10-23,64.0,58.0,52.0,45.0,43.9,41.0,70,59,48,0.00,40.00,10,7,13,0.00
2013-10-24,65.0,58.1,52.0,46.0,43.8,43.0,70,59,47,0.00,40.00,7,5,11,0.00
2013-10-25,65.0,53.4,44.0,48.0,44.4,42.0,94,73,48,0.00,40.00,9,5,10,0.00
2013-10-26,58.0,48.7,41.0,50.0,40.6,-99.9,98,80,65,0.00,40.00,10,5,10,0.00
2013-10-27,48.0,45.1,42.0,45.0,42.2,39.0,98,90,72,0.00,40.00,40,19,48,0.00
2013-10-28,52.0,43.7,40.0,40.0,25.2,-99.9,76,53,36,0.00,40.00,10,5,14,0.00
2013-10-29,51.0,43.3,36.0,29.0,22.7,19.0,67,44,33,0.00,40.00,12,6,13,0.00
2013-10-30,53.0,42.4,33.0,33.0,29.6,24.0,86,62,35,0.00,40.00,34,20,41,0.00
2013-10-31,53.0,48.4,45.0,47.0,42.6,34.0,89,80,59,0.00,40.00,31,19,40,0.00
2013-11-1,59.0,49.5,41.0,46.0,42.5,39.0,98,78,51,0.00,40.00,25,10,29,0.00
2013-11-2,50.0,42.9,35.0,45.0,36.1,-99.9,98,82,61,0.00,40.00,41,20,58,0.00
2013-11-3,42.0,38.1,35.0,37.0,35.0,30.0,99,89,63,0.00,40.00,36,20,44,0.00
2013-11-4,42.0,37.0,35.0,39.0,33.4,-99.9,99,92,88,0.00,40.00,24,10,29,0.00
2013-11-5,46.0,41.7,37.0,45.0,40.3,36.0,98,94,86,0.00,40.00,29,10,36,0.00
2013-11-6,45.0,42.4,39.0,43.0,41.7,39.0,99,97,91,0.00,40.00,15,9,19,0.00
2013-11-7,45.0,39.9,38.0,43.0,36.0,-99.9,100,91,77,0.00,40.00,27,13,41,0.00
2013-11-8,45.0,42.5,40.0,41.0,39.6,38.0,96,89,77,0.00,40.00,19,11,25,0.00
2013-11-9,43.0,39.2,37.0,40.0,34.9,-99.9,98,90,85,0.00,40.00,10,5,14,0.00
2013-11-10,48.0,42.5,39.0,41.0,38.8,38.0,95,86,71,0.00,40.00,7,4,10,0.00
2013-11-11,43.0,41.3,40.0,41.0,39.6,39.0,98,93,89,0.00,40.00,11,8,12,0.00
2013-11-12,49.0,45.0,41.0,46.0,42.6,39.0,98,91,83,0.00,40.00,15,7,19,0.00
2013-11-13,52.0,46.5,43.0,47.0,42.9,38.0,98,88,59,0.00,40.00,28,15,32,0.00
2013-11-14,45.0,41.4,38.0,39.0,37.7,36.0,100,87,73,0.00,40.00,32,23,41,0.00
2013-11-15,43.0,40.4,39.0,37.0,34.7,32.0,90,80,70,0.00,40.00,36,23,49,0.00
2013-11-16,43.0,38.1,36.0,41.0,33.3,-99.9,97,88,80,0.00,40.00,33,18,46,0.00
2013-11-17,48.0,42.6,38.0,42.0,40.2,37.0,98,91,76,0.00,40.00,16,7,21,0.00
2013-11-19,49.0,44.9,35.0,47.0,42.6,30.0,97,91,79,0.00,40.00,37,16,42,0.00
2013-11-20,38.0,32.3,26.0,30.0,20.0,8.0,90,62,37,0.00,40.00,31,14,37,0.00
2013-11-21,33.0,25.6,21.0,14.0,7.2,-99.9,66,49,31,0.00,40.00,12,8,15,0.00
2013-11-22,32.0,23.1,18.0,18.0,11.4,-99.9,90,66,52,0.00,40.00,12,8,17,0.00
2013-11-23,34.0,25.3,21.0,19.0,13.9,-99.9,76,68,51,0.00,40.00,11,9,14,0.00
2013-11-24,34.0,27.7,23.0,22.0,19.5,15.0,83,71,55,0.00,40.00,8,6,13,0.00
2013-11-25,38.0,28.3,26.0,24.0,14.7,-99.9,80,66,52,0.00,40.00,9,5,12,0.00
2013-11-26,38.0,29.4,28.0,26.0,19.2,-99.9,90,73,57,0.00,40.00,6,4,6,0.00
2013-11-27,35.0,29.8,26.0,27.0,25.8,24.0,97,84,69,0.00,40.00,9,6,12,0.00
2013-11-28,41.0,32.0,27.0,30.0,26.6,24.0,89,81,64,0.00,40.00,7,4,7,0.00
2013-11-29,40.0,34.4,28.0,38.0,30.9,26.0,98,86,75,0.00,40.00,21,9,25,0.00
2013-11-30,47.0,41.1,38.0,40.0,34.7,-99.9,99,84,74,0.00,40.00,23,15,25,0.00
2013-12-2,44.0,34.9,31.0,43.0,30.1,-99.9,99,89,79,0.00,40.00,39,24,48,0.00
2013-12-3,33.0,28.0,23.0,29.0,20.9,10.0,99,76,46,0.00,40.00,25,9,31,0.00
2013-12-4,27.0,21.2,16.0,13.0,11.0,9.0,82,64,52,0.00,40.00,10,6,12,0.00
2013-12-5,20.0,15.4,12.0,16.0,11.7,7.0,95,85,72,0.00,40.00,14,7,16,0.00
2013-12-6,16.0,13.8,12.0,14.0,12.4,10.0,96,93,90,0.00,40.00,12,8,16,0.00
2013-12-7,14.0,9.0,4.0,11.0,0.0,-99.9,93,73,60,0.00,40.00,16,9,16,0.00
2013-12-8,13.0,7.7,2.0,2.0,-1.2,-6.0,80,66,52,0.00,40.00,6,3,6,0.00
2013-12-9,30.0,18.9,7.0,27.0,14.4,1.0,90,82,68,0.00,40.00,26,14,32,0.00
2013-12-10,33.0,27.7,21.0,30.0,22.8,-99.9,99,90,86,0.00,40.00,31,16,37,0.00
2013-12-11,25.0,21.4,18.0,21.0,18.2,15.0,96,87,77,0.00,40.00,10,6,12,0.00
2013-12-12,34.0,24.8,19.0,33.0,18.5,-99.9,95,83,70,0.00,40.00,10,4,11,0.00
2013-12-13,41.0,38.7,36.0,40.0,38.4,36.0,100,99,98,0.00,40.00,20,13,21,0.00
2013-12-19,36.0,30.1,26.0,28.0,21.8,14.0,102,74,41,0.00,40.00,21,7,24,0.00
2013-12-20,41.0,32.7,28.0,41.0,30.1,20.0,102,90,64,0.00,40.00,37,22,50,0.00
2013-12-21,43.0,41.1,41.0,42.0,37.2,-99.9,100,91,84,0.00,40.00,39,28,49,0.00
2013-12-22,46.0,43.1,40.0,44.0,42.0,40.0,101,96,91,0.00,40.00,30,25,40,0.00
2013-12-23,49.0,42.8,38.0,46.0,36.7,-99.9,99,88,71,0.00,40.00,38,20,50,0.00
2013-12-24,43.0,35.9,32.0,35.0,32.2,31.0,101,87,64,0.00,40.00,17,8,20,0.00
2013-12-25,37.0,32.2,29.0,33.0,29.6,28.0,99,90,74,0.00,40.00,8,3,9,0.00
2013-12-26,40.0,31.6,27.0,33.0,29.4,27.0,103,92,70,0.00,40.00,6,3,7,0.00
2013-12-27,40.0,31.3,26.0,39.0,30.4,26.0,101,97,83,0.00,40.00,33,9,37,0.00
2013-12-28,45.0,35.6,32.0,38.0,30.1,-99.9,102,89,71,0.00,40.00,31,13,36,0.00
2013-12-29,40.0,33.5,29.0,33.0,30.6,29.0,103,91,68,0.00,40.00,21,10,27,0.00
2013-12-30,37.0,31.1,27.0,36.0,30.5,27.0,103,99,80,0.00,40.00,20,8,20,0.00
2013-12-31,45.0,41.6,39.0,38.0,34.5,31.0,94,76,63,0.00,40.00,26,19,34,0.00
2014-1-1,39.0,35.8,31.0,38.0,35.7,31.0,103,101,92,0.00,40.00,10,6,11,0.00
2014-1-2,45.0,35.1,29.0,43.0,33.0,29.0,104,95,70,0.00,40.00,30,7,38,0.00